Printer-friendly version

IAU Minor Planet Center

Minor Planet Center

MPEC 2002-L14 : 2002 LV

The following Minor Planet Electronic Circular may be linked-to from your own Web pages, but must not otherwise be redistributed electronically.


Read MPEC 2002-L13 Read MPEC 2002-L15


M.P.E.C. 2002-L14                                Issued 2002 June 3, 19:58 UT

     The Minor Planet Electronic Circulars contain information on unusual
         minor planets and routine data on comets.  They are published
   on behalf of Commission 20 of the International Astronomical Union by the
          Minor Planet Center, Smithsonian Astrophysical Observatory,
                          Cambridge, MA 02138, U.S.A.

             Prepared using the Tamkin Foundation Computer Network

                              MPC@CFA.HARVARD.EDU
          URL http://cfa-www.harvard.edu/iau/mpc.html  ISSN 1523-6714

                                    2002 LV

Observations:
     K02L00V* C2002 06 01.36721 19 55 45.50 +24 50 25.4          17.9        704
     K02L00V  C2002 06 01.38106 19 55 46.68 +24 50 38.5          18.2        704
     K02L00V  C2002 06 01.39490 19 55 47.73 +24 50 52.4          18.2        704
     K02L00V  C2002 06 01.40874 19 55 48.93 +24 51 05.2          18.2        704
     K02L00V  C2002 06 01.42259 19 55 50.05 +24 51 18.1          18.2        704
     K02L00V  C2002 06 02.02209 19 56 41.81 +25 00 36.5                      246
     K02L00V  C2002 06 02.02304 19 56 41.89 +25 00 37.5                      246
     K02L00V  C2002 06 02.02384 19 56 41.95 +25 00 38.1                      246
     K02L00V  C2002 06 02.02488 19 56 42.03 +25 00 39.0                      246
     K02L00V  C2002 06 02.02579 19 56 42.11 +25 00 40.0                      246
     K02L00V  C2002 06 02.02601 19 56 42.17 +25 00 40.0          19.1 V      151
     K02L00V  C2002 06 02.02675 19 56 42.19 +25 00 40.8                      246
     K02L00V  C2002 06 02.02769 19 56 42.28 +25 00 41.6                      246
     K02L00V  C2002 06 02.02794 19 56 42.37 +25 00 41.6          18.2 R      636
     K02L00V  C2002 06 02.02795 19 56 42.35 +25 00 42.5          19.5 V      151
     K02L00V  C2002 06 02.02867 19 56 42.37 +25 00 42.6                      246
     K02L00V  C2002 06 02.02964 19 56 42.52 +25 00 44.3          18.8 V      151
     K02L00V  C2002 06 02.03106 19 56 42.61 +25 00 44.9          19.0 V      151
     K02L00V  C2002 06 02.03187 19 56 42.65 +25 00 44.8          18.0 R      636
     K02L00V  C2002 06 02.03581 19 56 43.04 +25 00 49.0          18.1 R      636
     K02L00V IC2002 06 02.04767 19 56 44.00 +25 01 00.3                      557
     K02L00V  C2002 06 02.05191 19 56 44.24 +25 01 03.4                      118
     K02L00V  C2002 06 02.05326 19 56 44.45 +25 01 05.2                      557
     K02L00V  C2002 06 02.05449 19 56 44.43 +25 01 06.9                      118
     K02L00V  C2002 06 02.05659 19 56 44.69 +25 01 08.7                      118
     K02L00V  C2002 06 02.05677 19 56 44.66 +25 01 09.3                      557
     K02L00V  C2002 06 02.05792 19 56 44.80 +25 01 09.8          18.5 V      557
     K02L00V  C2002 06 02.05797 19 56 44.77 +25 01 10.9          17.6 R      118
     K02L00V  C2002 06 02.06289 19 56 45.39 +25 01 15.7                      946
     K02L00V  C2002 06 02.07459 19 56 46.39 +25 01 27.2          18.3 R      946
     K02L00V  C2002 06 02.08039 19 56 46.91 +25 01 32.7          18.4 R      946
     K02L00V  C2002 06 02.11384 19 56 49.64 +25 02 04.5          17.5 R      941
     K02L00V  C2002 06 02.11709 19 56 49.86 +25 02 07.2          17.6 R      941
     K02L00V  C2002 06 02.31306 19 57 07.03 +25 05 10.9          17.8 R      734
     K02L00V  C2002 06 02.31973 19 57 07.62 +25 05 16.8          17.5 R      734
     K02L00V  C2002 06 02.37077 19 57 11.98 +25 06 06.2          18.1        704
     K02L00V  C2002 06 02.38931 19 57 13.45 +25 06 21.9          17.9 R      448
     K02L00V  C2002 06 02.39221 19 57 13.72 +25 06 25.8          18.5        704
     K02L00V  C2002 06 02.39676 19 57 14.00 +25 06 29.3                      448
     K02L00V  C2002 06 02.39975 19 57 14.23 +25 06 32.3                      448
     K02L00V  C2002 06 02.40296 19 57 14.59 +25 06 35.5          18.3        704
     K02L00V  C2002 06 03.04699 19 58 10.47 +25 16 35.9          18.1 R      118
     K02L00V  C2002 06 03.05057 19 58 10.81 +25 16 38.8                      118
     K02L00V  C2002 06 03.05399 19 58 11.13 +25 16 41.8                      118
     K02L00V  C2002 06 03.36177 19 58 38.15 +25 21 33.7          18.0        704
     K02L00V  C2002 06 03.36648 19 58 38.53 +25 21 37.1          18.0        704
     K02L00V  C2002 06 03.37533 19 58 39.22 +25 21 46.5          17.8        704
     K02L00V  C2002 06 03.38037 19 58 39.60 +25 21 50.8          18.0        704
     K02L00V  C2002 06 03.38906 19 58 40.42 +25 21 59.3          18.3        704
     K02L00V  C2002 06 03.39425 19 58 40.77 +25 22 03.5          18.3        704
     K02L00V  C2002 06 03.42209 19 58 43.09 +25 22 29.9          18.4        704

Observer details:
118 Modra.  Observers S. Gajdos, J. Toth.  0.6-m f/5.5 reflector + CCD.
151 Eschenberg Observatory, Winterthur.  Observer M. Griesser.  0.40-m f/5.8
    Hypergraph + CCD.
246 Klet Observatory-KLENOT.  Observers J. Ticha, M. Tichy.  1.06-m KLENOT
    telescope + CCD.
448 Desert Moon Observatory.  Observer B. Stevens.  0.30-m f/6.3
    Schmidt-Cassegrain + CCD.
557 Ondrejov.  Observer P. Kusnirak.  0.65-m f/3.6 reflector + CCD.
636 Essen.  Observers A. Knoefel, T. Payer.  0.32-m f/5.7 reflector + CCD.
704 Lincoln Laboratory ETS, New Mexico.  Observers M. Blythe, F. Shelly,
    M. Bezpalko, R. Huber, L. Manguso, S. Adams, J. Piscitelli.  Measurers
    J. Stuart, R. Sayer, J. B. Evans, H. Viggh.  1.0-m f/2.15 reflector + CCD.
734 Farpoint Observatory.  Observer G. Hug.  0.30-m Schmidt-Cassegrain + CCD.
941 Observatorio Pla D'Arguines.  Observer R. Ferrando.  0.26-m f/10
    Schmidt-Cassegrain + CCD.
946 Ametlla de Mar.  Observer J. Nomen.  0.40-m f/2.0 Schmidt + CCD.

Orbital elements:
2002 LV                                                              PHA 0.027D
Epoch 2002 May 26.0 TT = JDT 2452420.5                  MPC
M 341.63585              (2000.0)            P               Q
n   0.19199676     Peri.  221.42382     +0.92777469     +0.01107399
a   2.9758209      Node   133.49980     -0.00532807     +0.99985077
e   0.6899990      Incl.   30.94287     -0.37310285     +0.01325880
P   5.13           H   16.5           G   0.15
From 51 observations 2002 June 1-3.

Ephemeris:
2002 LV                  a,e,i = 2.98, 0.69, 31                  q = 0.9225
Date    TT    R. A. (2000) Decl.     Delta      r     Elong.  Phase     V
2002 05 26    19 46.85   +23 11.3    0.912    1.589   111.2    36.5    18.8
2002 06 05    20 01.03   +25 47.1    0.766    1.494   113.3    38.6    18.3
2002 06 15    20 16.99   +28 20.8    0.626    1.400   114.9    41.1    17.8
2002 06 25    20 37.33   +30 45.8    0.490    1.307   115.9    44.4    17.2
2002 07 05    21 08.30   +32 51.0    0.360    1.218   116.0    48.6    16.5
2002 07 15    22 07.57   +33 39.7    0.238    1.134   114.1    54.9    15.7
2002 07 25    00 26.12   +26 06.3    0.142    1.059   104.1    68.5    14.8
2002 08 04    03 47.05   -03 37.2    0.143    0.997    78.9    93.1    15.6
2002 08 14    05 33.41   -19 46.0    0.236    0.951    68.3    98.4    16.8
2002 08 24    06 22.88   -24 37.0    0.352    0.926    66.1    93.5    17.4
2002 09 03    06 52.85   -26 12.5    0.467    0.925    66.2    86.3    17.7
2002 09 13    07 14.73   -26 40.5    0.573    0.947    67.3    78.7    17.9
2002 09 23    07 32.07   -26 43.1    0.665    0.990    69.4    71.6    18.1
2002 10 03    07 45.91   -26 38.1    0.739    1.050    72.5    65.3    18.3
2002 10 13    07 56.22   -26 31.5    0.795    1.124    76.7    59.8    18.4
2002 10 23    08 02.70   -26 22.0    0.834    1.207    82.1    54.8    18.5
2002 11 02    08 04.92   -26 04.5    0.857    1.295    88.6    50.0    18.6
2002 11 12    08 02.40   -25 30.0    0.868    1.388    96.4    45.1    18.6
2002 11 22    07 54.91   -24 25.5    0.872    1.482   105.5    40.0    18.6
2002 12 02    07 42.71   -22 37.8    0.876    1.577   115.6    34.3    18.6
2002 12 12    07 26.76   -19 55.2    0.888    1.672   126.4    28.3    18.6
2002 12 22    07 08.94   -16 16.1    0.915    1.766   136.8    22.4    18.6
2003 01 01    06 51.54   -11 53.2    0.966    1.859   145.0    17.7    18.7
2003 01 11    06 36.60   -07 10.4    1.044    1.951   148.3    15.4    18.9
2003 01 21    06 25.44   -02 33.5    1.151    2.041   145.7    15.8    19.2
2003 01 31    06 18.44   +01 39.0    1.285    2.129   139.0    17.7    19.6
2003 02 10    06 15.43   +05 18.9    1.443    2.216   130.6    19.7    20.0
2003 02 20    06 15.93   +08 24.4    1.620    2.301   121.9    21.4    20.4
2003 03 02    06 19.33   +10 58.4    1.811    2.384   113.3    22.4    20.8
2003 03 12    06 25.10   +13 04.7    2.014    2.465   105.0    22.9    21.1
2003 03 22    06 32.76   +14 47.0    2.223    2.545    97.0    22.9    21.4
2003 04 01    06 41.88   +16 09.1    2.437    2.623    89.3    22.4    21.6
2003 04 11    06 52.15   +17 13.6    2.651    2.699    81.9    21.6    21.8
2003 04 21    07 03.29   +18 03.1    2.864    2.773    74.7    20.5    22.0

Timothy B. Spahr             (C) Copyright 2002 MPC           M.P.E.C. 2002-L14

Read MPEC 2002-L13 Read MPEC 2002-L15


Our Web policy. Index to the CBAT/MPC/ICQ pages.


Valid HTML 4.01!